sat.trackr.live / text

‹ back to catalog

ONEWEB-0313

NORAD 49099 · 2021-075AA

PAYLOAD ACTIVE UNKNOWN

§ Identity

Operator
Country
UK
Launch date
2021-08-21
Launch site
TYMSC
Launch vehicle
Mass (kg)
RCS (m²)

Purposes: comms

External: N2YO · Heavens-Above · Gunter

§ Orbital elements

Epoch: 2026-05-25T02:34:25.351104Z

Period
109.29 min
Inclination
87.9151°
Eccentricity
0.0001916
Mean motion
13.17650611 rev/d
Perigee alt
1,192.3 km
Apogee alt
1,195.2 km
Semi-major
7,571.8 km
B*
-7.1603e-5
RAAN
10.4699°
Arg perigee
86.8036°
Mean anomaly
273.3315°
Rev number
23,055

§ Raw data

ONEWEB-03131 49099U 21075AA  26145.10723786 -.00000015  00000+0 -71603-4 0  99962 49099  87.9151  10.4699 0001916  86.8036 273.3315 13.17650611230551

JSON: /api/v1/satellites/49099 · /tle

For live sub-satellite position, see the globe view (requires WebGL).

§ Visibility from observer

Set your observer location to see the next 7 days of passes ≥ 10°. The values pass through the URL so the page stays shareable.

No JS? Fill the form by hand. The geolocation button needs JavaScript.